sat.trackr.live / text

‹ back to catalog

JILIN-1

NORAD 40961 · 2015-057D

PAYLOAD ACTIVE UNKNOWN

§ Identity

Operator
Country
PRC
Launch date
2015-10-07
Launch site
JSC
Launch vehicle
Mass (kg)
RCS (m²)
2.29

External: N2YO · Heavens-Above · Gunter

§ Orbital elements

Epoch: 2026-05-25T04:48:33.042816Z

Period
97.42 min
Inclination
97.6508°
Eccentricity
0.0016465
Mean motion
14.78115200 rev/d
Perigee alt
623.7 km
Apogee alt
646.8 km
Semi-major
7,013.4 km
B*
1.0883e-4
RAAN
145.7098°
Arg perigee
343.8100°
Mean anomaly
16.2583°
Rev number
57,221

§ Raw data

JILIN-11 40961U 15057D   26145.20038244  .00000740  00000+0  10883-3 0  99922 40961  97.6508 145.7098 0016465 343.8100  16.2583 14.78115200572213

JSON: /api/v1/satellites/40961 · /tle

For live sub-satellite position, see the globe view (requires WebGL).

§ Visibility from observer

Set your observer location to see the next 7 days of passes ≥ 10°. The values pass through the URL so the page stays shareable.

No JS? Fill the form by hand. The geolocation button needs JavaScript.

§ Radio — SatNOGS DB

ModeDescriptionDownlinkUplink
BPSK Telemetry 2.231 GHz

1 transmitter · refreshed weekly from db.satnogs.org